Weather in Arshaly

Kazakhstan     50°50′01″N   72°10′56″E
temp.,
°C
wind,
m/s
gust,
m/s
humid.,
%
clouds,
%
prec.,
mm/h
press.,
hPa
HPBL,
m
11 may, tue
tue1123:00+11ene61368100 0.4 1016536
02:00+10ne6136392 0.0 1017441
05:00+7ne411665 0.0 1019265
08:00+12nne710510 0.0 1020884
11:00+15nne89405 0.0 10211683
14:00+16nne89375 0.0 10211933
17:00+16nne810355 0.0 10222145
20:00+12n34485 0.0 102455
12 may, wed
wed1223:00+10n35561 0.0 102573
02:00+9n33590 0.0 102541
05:00+8n33620 0.0 102744
08:00+13n35446 0.0 1027454
11:00+17n56327 0.0 10261753
14:00+20nnw563024 0.0 10252241
17:00+20nnw673193 0.0 10242507
20:00+16nnw3445100 0.0 102459
13 may, thu
thu1323:00+14wnw3549100 0.0 102371
02:00+13wnw375694 0.0 1022133
05:00+13nnw5966100 0.0 1022414
08:00+14n695098 0.0 10231042
11:00+16n8103899 0.0 10231588
14:00+17n894289 0.0 10231739
17:00+17n7104743 0.0 10231688
20:00+16nw125999 0.0 102361
14 may, fri
fri1423:00+15wsw2362100 0.0 102375
02:00+15nw236679 0.0 102267
05:00+13n367836 0.0 1023123
08:00+17nne576163 0.0 1025777
11:00+20nne564838 0.1 10251863
14:00+22nne55363 0.0 10252165
17:00+21nne55363 0.0 10251835
20:00+17ene34525 0.0 102663
15 may, sat
sat1523:00+15e22576 0.0 102722
02:00+14se116198 0.0 102611
05:00+13s11636 0.0 102711
08:00+18wnw224815 0.0 1026483
11:00+21nnw23345 0.0 10251519
14:00+24nne34314 0.0 10242114
17:00+24nne34326 0.0 10222450
20:00+20ese224545 0.0 102215